Location: Cisewo
(53.3833°N, 14.9000°E)
Time: 13:25:28
(UTC+00:00)

FALCON 9 DEB - Pass Details

Date: 18 April 2021
Orbit: 422 x 435 km, 53.0° (Epoch: 16 May)

Event Time Altitude Azimuth Distance (km) Brightness Sun altitude
Rises 19:09:56 0° 211° (SSW) 2,379 6.9 -9.2°
Reaches altitude 10° 19:12:21 10° 195° (SSW) 1,520 5.7 -9.5°
Maximum altitude 19:14:59 21° 144° (SE) 1,025 4.4 -9.9°
Enters shadow 19:17:00 13° 101° (ESE) 1,342 5.0 -10.1°
